Location: Newark
(45.5000°N, 11.4167°E)
Time: 00:27:55
(UTC+00:00)

Explorer 11/Cluster Stage 4 - Pass Details

Date: 28 August 2019
Orbit: 467 x 1259 km, 28.8° (Epoch: 22 October)

Event Time Altitude Azimuth Distance (km) Brightness Sun altitude
Rises 10:28:57 0° 248° (WSW) 4,032 10.3 52.9°
Reaches altitude 10° 10:32:27 10° 234° (SW) 3,150 10.0 53.0°
Maximum altitude 10:38:12 22° 188° (S) 2,445 10.1 53.3°
Drops below altitude 10° 10:44:04 10° 142° (SE) 3,217 10.4 53.6°
Sets 10:47:41 0° 128° (SE) 4,139 10.7 53.7°
